Wind_Speed
32 32 32 32 33 32 30 30 31 30 31 32 32 33 33 32 31 29 28 27 26 26 26 25 25 25 25 25 25 25 26 26 27 27 28 28 29 30
33 34 34 34 33 32 32 32 32 32 32 32 32 32 32 32 31 30 28 27 26 26 26 26 25 25 26 25 25 26 26 27 27 28 28 29 30 31
34 35 34 34 34 33 33 33 33 32 32 32 31 30 30 31 30 29 28 26 26 26 26 26 25 25 25 25 25 25 26 27 27 28 29 29 30 31
32 34 34 33 33 33 33 33 33 33 33 32 31 29 29 28 28 27 27 26 26 25 25 25 25 25 25 25 25 25 25 26 26 27 28 29 30 31
30 31 32 32 32 32 33 33 33 32 32 31 29 28 26 26 25 25 25 25 25 25 25 25 24 24 24 24 25 25 25 25 25 26 27 28 29 30
25 27 28 30 30 30 30 29 29 29 28 27 26 24 24 23 23 24 24 24 25 24 24 24 24 24 24 24 24 24 24 25 25 26 27 27 28 29
19 20 21 22 22 23 24 24 24 24 24 23 22 21 21 21 22 22 23 23 23 23 23 22 22 22 23 23 24 24 25 25 26 27 27 28 29 30
16 15 16 16 16 16 17 18 18 19 19 18 18 19 19 19 20 21 21 22 22 22 22 21 20 20 20 21 22 23 24 25 26 27 28 30 32 33
16 15 14 14 13 13 13 13 14 14 15 15 16 16 17 18 19 20 20 21 20 20 19 19 18 18 18 19 20 21 22 23 25 26 27 30 33 35
18 17 17 16 15 15 13 12 13 13 13 13 14 15 16 16 17 18 19 19 19 19 19 18 17 17 17 17 17 18 19 21 23 25 28 30 33 36
18 18 18 18 18 17 17 16 15 13 13 13 14 15 15 15 16 17 17 18 18 18 17 17 16 16 16 16 17 18 19 21 23 25 28 30 32 35
16 17 18 19 19 19 18 16 15 14 13 12 12 12 13 13 14 14 15 15 15 15 14 13 13 14 15 15 17 18 20 21 23 26 28 31 34 36
13 15 17 18 18 18 17 16 14 13 12 11 11 11 11 11 11 11 11 11 11 11 11 10 10 11 12 14 15 16 18 20 22 25 27 30 32 34
10 13 14 15 16 16 16 14 13 12 11 10 9 8 8 8 7 7 7 7 7 7 6 6 7 8 9 10 12 14 16 18 21 23 25 26 28 29
6 9 12 14 15 16 15 14 13 11 10 9 7 6 6 6 5 4 3 3 3 2 2 2 3 4 6 8 10 13 16 19 21 23 24 25 25 26
3 6 9 12 14 14 13 12 13 11 10 9 7 6 5 5 4 4 4 4 4 3 3 3 3 5 7 9 12 15 18 20 23 25 25 26 26 26
11 11 12 13 14 14 13 12 12 11 10 8 7 7 6 6 6 6 6 6 6 6 6 5 6 7 9 11 13 16 19 22 24 26 27 27 28 28
18 17 16 15 15 14 13 12 12 11 10 9 8 8 8 9 9 9 9 9 9 8 7 7 7 7 8 11 13 16 18 21 23 25 26 27 28 30
22 20 18 17 16 15 14 13 13 12 11 10 11 11 11 11 11 11 11 10 9 8 7 7 7 7 8 10 12 14 16 19 21 22 24 26 27 29
24 22 21 19 18 17 16 16 15 14 14 14 14 13 13 13 12 12 11 9 8 7 6 6 7 7 9 10 12 14 15 17 19 20 22 23 25 27
25 24 23 22 21 20 19 19 18 17 16 16 15 14 14 13 12 10 9 8 7 6 6 6 7 8 10 11 13 15 16 17 18 20 21 22 23 24
24 24 23 22 22 21 20 19 19 18 17 16 15 14 12 11 10 9 8 7 6 5 6 7 8 10 12 14 15 16 18 19 20 21 22 22 23 24
19 19 20 19 19 19 18 18 17 16 15 14 13 11 10 9 8 7 6 6 5 5 7 8 10 12 14 15 16 18 19 20 22 23 23 23 23 24
Wind_Direction
261 256 252 252 251 251 252 254 256 257 257 255 255 256 258 261 263 266 268 267 266 265 265 267 271 272 272 271 270 268 266 264 263 262 262 263 264 266
257 252 252 253 251 252 253 256 257 258 260 259 258 256 256 257 260 264 266 265 264 263 263 266 268 271 271 271 269 268 268 267 266 265 264 264 264 266
257 252 253 252 254 255 256 257 258 260 262 263 260 256 255 257 258 261 263 263 262 261 262 265 267 270 270 270 269 270 268 267 266 266 265 265 265 266
256 253 253 253 256 256 257 257 258 261 262 262 260 255 254 255 255 257 259 260 261 260 261 265 268 269 270 270 269 270 269 268 266 266 266 266 268 269
252 251 251 251 252 253 253 255 258 259 259 258 256 253 252 251 252 254 256 258 259 259 261 265 268 270 271 270 270 269 268 269 269 268 269 270 270 271
249 248 247 246 246 247 249 252 253 254 253 251 250 248 247 248 251 253 256 257 258 259 263 267 268 270 271 270 270 270 271 271 271 271 271 271 270 271
250 244 239 238 239 241 244 246 247 246 245 244 243 244 244 246 250 253 255 257 258 260 264 269 272 272 271 270 270 270 271 273 273 271 271 272 272 272
250 245 240 236 233 232 234 237 240 242 239 239 241 242 243 246 249 253 255 256 258 261 266 271 274 275 274 274 273 272 271 274 274 273 273 274 274 275
251 247 244 242 237 236 234 236 238 238 238 240 240 241 243 245 249 253 255 256 258 262 266 269 273 275 277 280 278 278 276 276 275 277 277 277 278 278
244 241 237 236 235 235 235 238 239 237 237 239 243 244 243 246 250 252 254 255 257 260 263 266 270 276 281 284 288 287 286 285 285 285 284 284 284 283
240 236 233 230 230 232 234 238 242 240 235 240 244 244 244 248 252 253 254 255 257 259 262 267 272 277 283 288 291 293 295 296 295 293 292 291 290 289
239 235 232 228 227 229 232 235 238 239 233 234 239 241 244 246 250 251 253 255 257 259 262 269 276 282 288 293 297 300 301 302 302 301 300 299 297 295
241 232 229 226 223 222 224 228 231 230 225 226 232 237 239 241 246 250 252 253 255 258 263 272 281 289 295 302 306 308 310 312 312 312 310 308 306 304
241 230 222 217 213 210 210 212 214 214 214 216 217 220 227 230 234 241 247 249 252 256 264 277 291 302 310 317 321 326 331 333 333 331 327 325 323 320
226 213 205 202 199 197 199 199 197 199 199 198 201 206 210 210 211 218 219 214 204 207 231 294 326 338 346 351 356 1 1 360 357 355 352 350 348 345
126 161 171 175 177 178 182 182 181 183 182 183 187 184 180 179 176 167 156 143 137 128 111 83 55 41 32 28 26 22 19 17 15 14 13 11 9 7
91 115 131 142 150 157 162 164 166 169 170 168 166 163 157 154 143 133 130 127 121 113 101 86 70 55 44 35 29 28 26 26 25 23 23 22 21 20
85 98 112 122 130 137 142 148 153 155 153 150 147 145 141 135 129 126 123 118 112 104 93 79 61 49 38 32 29 28 28 27 26 26 27 27 27 27
82 90 99 109 117 123 127 131 134 137 137 135 135 134 132 129 127 122 117 112 105 96 84 68 52 40 34 29 28 27 26 25 24 25 25 25 25 25
79 85 92 99 106 111 115 119 122 124 125 126 127 126 124 123 121 117 113 107 100 89 74 57 44 36 33 28 24 22 21 19 18 17 17 18 18 19
78 82 87 92 98 102 107 111 114 116 118 120 120 120 119 117 116 113 108 101 91 79 62 44 33 30 27 24 20 17 14 11 9 7 7 7 7 8
78 81 84 89 94 98 102 105 109 111 113 115 115 115 115 114 112 107 100 92 81 64 46 33 27 25 22 19 15 12 9 6 4 1 359 358 358 359
79 82 85 89 93 97 101 104 106 109 110 112 113 113 112 109 105 98 89 78 63 48 39 34 28 23 19 15 12 9 6 4 2 359 356 354 353 352
Height
5811 5812 5814 5815 5818 5820 5822 5824 5826 5828 5830 5831 5833 5835 5836 5837 5838 5839 5839 5841 5841 5842 5842 5842 5842 5841 5841 5841 5841 5841 5841 5842 5842 5843 5844 5844 5845 5845
5802 5803 5805 5807 5809 5811 5813 5815 5817 5819 5821 5823 5825 5826 5828 5829 5830 5831 5832 5834 5835 5835 5836 5836 5836 5835 5835 5835 5835 5835 5835 5836 5836 5837 5837 5838 5838 5838
5792 5794 5796 5798 5800 5802 5805 5807 5809 5811 5813 5814 5816 5818 5820 5821 5823 5824 5826 5827 5828 5829 5830 5830 5830 5830 5829 5829 5829 5829 5830 5830 5830 5830 5830 5830 5830 5830
5783 5785 5787 5789 5791 5794 5796 5798 5800 5802 5804 5806 5808 5810 5812 5813 5815 5817 5819 5820 5822 5823 5824 5824 5824 5824 5824 5823 5823 5823 5823 5823 5823 5823 5823 5823 5823 5822
5775 5777 5779 5781 5783 5785 5787 5790 5792 5794 5796 5798 5800 5802 5804 5806 5809 5811 5813 5814 5816 5817 5818 5818 5818 5818 5818 5817 5817 5817 5817 5817 5817 5817 5817 5816 5816 5815
5767 5769 5771 5773 5775 5777 5779 5782 5784 5786 5788 5791 5793 5795 5798 5800 5802 5805 5807 5808 5810 5811 5812 5812 5812 5812 5812 5811 5811 5811 5811 5811 5810 5810 5810 5809 5808 5808
5761 5762 5764 5766 5768 5770 5772 5775 5777 5780 5782 5784 5787 5789 5792 5794 5797 5799 5801 5803 5804 5805 5806 5806 5806 5806 5806 5806 5805 5805 5805 5804 5804 5803 5803 5802 5801 5800
5755 5757 5758 5760 5762 5764 5767 5769 5772 5774 5777 5779 5782 5784 5787 5789 5792 5794 5796 5798 5799 5800 5801 5801 5801 5801 5800 5800 5799 5799 5798 5798 5797 5797 5796 5795 5794 5793
5750 5752 5754 5756 5758 5760 5762 5764 5767 5769 5772 5775 5777 5780 5782 5785 5787 5789 5791 5793 5794 5795 5796 5796 5796 5796 5796 5795 5794 5794 5793 5792 5791 5790 5789 5788 5786 5784
5745 5747 5749 5751 5754 5756 5758 5760 5763 5765 5768 5771 5774 5776 5778 5780 5783 5785 5786 5788 5789 5790 5791 5792 5792 5792 5792 5791 5790 5789 5788 5787 5785 5784 5782 5780 5778 5775
5739 5741 5743 5746 5749 5751 5754 5757 5759 5762 5765 5767 5770 5772 5774 5777 5779 5781 5782 5783 5785 5786 5787 5788 5788 5788 5788 5788 5786 5785 5784 5782 5780 5778 5775 5772 5769 5766
5733 5735 5738 5741 5744 5747 5750 5753 5756 5759 5762 5765 5767 5769 5771 5773 5775 5777 5778 5780 5781 5783 5784 5784 5785 5785 5785 5784 5783 5781 5779 5777 5774 5771 5768 5764 5760 5755
5727 5729 5732 5735 5739 5743 5746 5750 5753 5756 5759 5762 5764 5767 5769 5771 5773 5774 5776 5777 5778 5780 5781 5781 5782 5782 5782 5781 5779 5777 5775 5772 5769 5764 5760 5755 5750 5745
5722 5724 5727 5730 5734 5739 5743 5747 5751 5754 5757 5760 5763 5765 5767 5769 5771 5772 5773 5774 5776 5777 5778 5779 5779 5780 5779 5778 5777 5774 5771 5767 5763 5758 5752 5747 5742 5737
5718 5719 5722 5727 5731 5736 5741 5745 5749 5752 5756 5759 5761 5763 5766 5768 5769 5771 5772 5773 5774 5775 5777 5777 5778 5778 5777 5776 5774 5771 5767 5763 5758 5753 5747 5742 5736 5731
5716 5718 5721 5725 5730 5735 5740 5744 5748 5751 5755 5758 5760 5763 5765 5767 5768 5770 5771 5773 5774 5775 5776 5776 5777 5777 5776 5774 5772 5769 5765 5760 5755 5750 5745 5739 5734 5729
5719 5720 5723 5727 5732 5736 5740 5744 5748 5751 5755 5757 5760 5762 5765 5767 5768 5770 5771 5773 5774 5775 5776 5777 5776 5776 5775 5773 5770 5767 5764 5759 5755 5750 5745 5740 5734 5729
5725 5726 5729 5732 5735 5739 5742 5746 5749 5752 5755 5758 5761 5763 5765 5767 5769 5771 5772 5774 5775 5776 5777 5777 5777 5776 5775 5772 5770 5767 5763 5759 5755 5751 5746 5741 5736 5731
5734 5735 5736 5738 5740 5743 5746 5749 5752 5754 5757 5760 5762 5764 5766 5769 5771 5772 5774 5775 5776 5777 5777 5777 5776 5776 5774 5772 5769 5766 5763 5759 5756 5752 5748 5743 5738 5733
5743 5743 5744 5745 5746 5748 5750 5752 5755 5757 5760 5762 5764 5767 5769 5771 5773 5774 5776 5777 5778 5778 5778 5778 5777 5775 5774 5772 5769 5766 5763 5760 5756 5753 5749 5744 5740 5735
5753 5752 5752 5752 5753 5754 5756 5758 5760 5762 5764 5766 5768 5770 5772 5774 5775 5777 5778 5778 5779 5779 5779 5778 5777 5775 5773 5771 5769 5766 5763 5759 5756 5753 5749 5745 5741 5736
5762 5761 5760 5760 5761 5762 5763 5764 5765 5767 5769 5770 5772 5774 5775 5776 5778 5779 5779 5780 5780 5780 5779 5778 5777 5775 5773 5771 5768 5765 5762 5759 5755 5752 5748 5744 5739 5734
5769 5768 5768 5768 5768 5769 5769 5770 5771 5772 5773 5775 5776 5777 5778 5779 5780 5780 5780 5781 5780 5780 5779 5778 5777 5775 5773 5770 5768 5765 5762 5758 5754 5750 5746 5742 5737 5733